This is the latest recevied weather packets stored in our database for station/object W5LND-10. If no packets are shown the sender has not sent any weather packets the latest 10 day(s).
| Time | Temp. | Humidity | Pressure | Rain* | Wind** | Luminosity | Snow |
|---|---|---|---|---|---|---|---|
| 1787862350 | 36.11° C | 35% | 1009.3 hPa | 0 mm | - | 142 W/m² | - |
| 1787862048 | 36.11° C | 34% | 1009.4 hPa | 0 mm | - | 174 W/m² | - |
| 1787861747 | 36.11° C | 34% | 1009.7 hPa | 0 mm | - | 176 W/m² | - |
| 1787861448 | 36.67° C | 33% | 1009.7 hPa | 0 mm | - | 195 W/m² | - |
| 1787861148 | 36.67° C | 32% | 1009.8 hPa | 0 mm | - | 197 W/m² | - |
| 1787860847 | 36.67° C | 32% | 1009.7 hPa | 0 mm | - | 248 W/m² | - |
| 1787860548 | 37.22° C | 31% | 1009.8 hPa | 0 mm | - | 227 W/m² | - |
| 1787860248 | 37.22° C | 31% | 1009.9 hPa | 0 mm | - | 243 W/m² | - |
| 1787859947 | 37.78° C | 31% | 1010 hPa | 0 mm | - | 281 W/m² | - |
| 1787859648 | 37.78° C | 31% | 1010 hPa | 0 mm | - | 452 W/m² | - |
| 1787859347 | 37.22° C | 32% | 1010.1 hPa | 0 mm | - | 661 W/m² | - |
| 1787859048 | 36.67° C | 32% | 1010.2 hPa | 0 mm | - | 364 W/m² | - |
| 1787858748 | 36.67° C | 33% | 1010.2 hPa | 0 mm | - | 1118 W/m² | - |
| 1787858448 | 36.67° C | 32% | 1010.3 hPa | 0 mm | - | 287 W/m² | - |
| 1787858148 | 37.22° C | 32% | 1010.4 hPa | 0 mm | - | 246 W/m² | - |
| 1787857848 | 37.22° C | 32% | 1010.5 hPa | 0 mm | - | 274 W/m² | - |
| 1787857548 | 37.22° C | 31% | 1010.6 hPa | 0 mm | - | 1234 W/m² | - |
| 1787857248 | 37.78° C | 31% | 1010.7 hPa | 0 mm | - | 1215 W/m² | - |
| 1787856948 | 37.78° C | 31% | 1010.6 hPa | 0 mm | - | 287 W/m² | - |
| 1787856648 | 37.22° C | 32% | 1010.8 hPa | 0 mm | - | 1158 W/m² | - |
| 1787856348 | 36.67° C | 33% | 1010.8 hPa | 0 mm | - | 1172 W/m² | - |
| 1787856048 | 36.67° C | 32% | 1010.9 hPa | 0 mm | - | 267 W/m² | - |
| 1787855748 | 36.67° C | 32% | 1011 hPa | 0 mm | - | 1162 W/m² | - |
| 1787855448 | 36.67° C | 32% | 1011.1 hPa | 0 mm | - | 309 W/m² | - |
| 1787855148 | 36.67° C | 32% | 1011.2 hPa | 0 mm | - | 315 W/m² | - |
* Rain latest hour (hover to see other rain measurements)
** Current wind speed in m/s (hover to see current wind gust speed)